Change the Weather History Date:

Sunday, February 26, 2012

  Actual Average Record
Temperature  
Mean Temperature 38 °F 36 °F  
Max Temperature 53 °F 50 °F 80 °F (1995)
Min Temperature 22 °F 22 °F -9 °F (1960)
Degree Days  
Heating Degree Days 26    
Moisture  
Dew Point 10 °F    
Average Humidity 35    
Maximum Humidity 61    
Minimum Humidity 13    
Precipitation  
Precipitation 0.00 in 0.02 in 0.05 in (1997)
Month to date precipitation 0.67 0.48  
Year to date precipitation 0.68 0.93  
Sea Level Pressure  
Sea Level Pressure 30.02 in    
Wind  
Wind Speed 9 mph (WNW)    
Max Wind Speed 29 mph    
Max Gust Speed 38 mph    
Visibility 10 miles    
Events      
T = Trace of Precipitation, MM = Missing Value Source: NWS Daily Summary

Daily Weather History Graph

Daily Weather History Graph

Search for Another Location

Airport or City:

Trip Planner

Search our weather history database for the weather conditions in past years. The results will help you decide how hot, cold, wet, or windy it might be!

Date:

Astronomy

Feb. 26, 2012 Rise Set
Actual Time 7:17 AM CST 6:27 PM CST
Civil Twilight 6:50 AM CST 6:55 PM CST
Nautical Twilight 6:19 AM CST 7:26 PM CST
Astronomical Twilight 5:47 AM CST 7:57 PM CST
Moon 9:14 AM CST (2/26) 11:25 PM CST (2/26)
Length of Visible Light 12h 04m
Length of Day
11h 10m
Waxing Crescent, 21% of the Moon is Illuminated
Feb 26
Waxing Crescent
Feb 29
First Quarter
Mar 8
Full
Mar 14
Last Quarter
Mar 22
New

Hourly Weather History & Observations

Time (CST) Temp. Windchill Dew Point Humidity Pressure Visibility Wind Dir Wind Speed Gust Speed Precip Events Conditions
12:53 AM 39.9 °F 35.1 °F 16.0 °F 38% 29.78 in 10.0 mi WNW 6.9 mph - N/A   Clear
1:53 AM 37.0 °F 33.3 °F 16.0 °F 42% 29.80 in 10.0 mi WSW 4.6 mph - N/A   Mostly Cloudy
2:53 AM 32.0 °F 27.5 °F 16.0 °F 52% 29.82 in 10.0 mi WSW 4.6 mph - N/A   Overcast
3:43 AM 30.2 °F 26.7 °F 15.8 °F 55% 29.82 in 10.0 mi WSW 3.5 mph - N/A   Scattered Clouds
3:53 AM 30.9 °F 27.5 °F 16.0 °F 54% 29.83 in 10.0 mi West 3.5 mph - N/A   Clear
4:53 AM 28.9 °F - 17.1 °F 61% 29.84 in 10.0 mi Calm Calm - N/A   Clear
5:53 AM 30.0 °F 24.1 °F 15.1 °F 54% 29.89 in 10.0 mi West 5.8 mph - N/A   Clear
7:53 AM 32.0 °F 26.4 °F 10.0 °F 40% 29.95 in 10.0 mi WSW 5.8 mph - N/A   Clear
8:53 AM 42.1 °F 33.9 °F 6.1 °F 23% 29.96 in 10.0 mi NW 17.3 mph 23.0 mph N/A   Clear
9:53 AM 45.0 °F 37.4 °F 3.0 °F 18% 29.98 in 10.0 mi NW 18.4 mph 27.6 mph N/A   Clear
10:53 AM 46.9 °F - 3.9 °F 17% 30.00 in 10.0 mi NW 20.7 mph 31.1 mph N/A   Clear
11:53 AM 50.0 °F - 3.0 °F 15% 30.01 in 10.0 mi NW 23.0 mph 33.4 mph N/A   Clear
12:53 PM 51.1 °F - 1.0 °F 13% 30.01 in 10.0 mi NW 28.8 mph 36.8 mph N/A   Clear
2:53 PM 52.0 °F - 3.0 °F 14% 30.03 in 10.0 mi NW 28.8 mph 38.0 mph N/A   Clear
3:53 PM 52.0 °F - 3.9 °F 14% 30.04 in 10.0 mi NW 20.7 mph 29.9 mph N/A   Clear
4:53 PM 51.1 °F - 3.9 °F 15% 30.08 in 10.0 mi NW 18.4 mph 27.6 mph N/A   Clear
5:53 PM 48.0 °F - 8.1 °F 20% 30.11 in 10.0 mi NNW 12.7 mph - N/A   Clear
6:53 PM 42.1 °F 36.1 °F 9.0 °F 26% 30.17 in 10.0 mi NNW 10.4 mph - N/A   Clear
7:53 PM 35.1 °F 28.6 °F 10.9 °F 37% 30.22 in 10.0 mi NNW 8.1 mph - N/A   Clear
8:53 PM 30.9 °F 26.2 °F 10.0 °F 42% 30.23 in 10.0 mi NW 4.6 mph - N/A   Clear
9:53 PM 28.0 °F 24.2 °F 10.9 °F 49% 30.26 in 10.0 mi WNW 3.5 mph - N/A   Clear
10:53 PM 26.1 °F 20.5 °F 10.9 °F 53% 30.28 in 10.0 mi WNW 4.6 mph - N/A   Clear
11:53 PM 25.0 °F - 10.9 °F 55% 30.31 in 10.0 mi Calm Calm - N/A   Clear